{"data":{"norad_id":59688,"epoch":"2026-05-24T22:13:45.567840Z","epoch_age_seconds":95610,"freshness":"FRESH","line1":"1 59688U 24086G   26144.92622185 -.00001140  00000+0 -31925-4 0  9999","line2":"2 59688  43.0034 338.7900 0000626 254.5399 105.5384 15.27572366115897","mean_motion":15.27572366,"eccentricity":6.26e-5,"inclination_deg":43.0034,"raan_deg":338.79,"arg_perigee_deg":254.5399,"mean_anomaly_deg":105.5384,"bstar":-3.1925e-5,"rev_number":11589,"period_min":94.267219809081,"perigee_km":482.64244339658,"apogee_km":483.50146675775,"semimajor_km":6861.2089550772,"source":"CELESTRAK","updated_at":"2026-05-25T13:38:19.024187Z"}}